User: anonymous
Location: Unspecified
(0.0000°N, 0.0000°E)
Time: 09:12:15
(UTC+00:00)
Language:

SWISSCUBE - Orbit

View from above orbital plane
View from above orbital plane
View from above satellite
View from above satellite

Ground track
Ground track

The orbit data is extracted from the following two-line orbital elements,

1 35932U 09051B   14244.89486376  .00000649  00000-0  16295-3 0  3903
2 35932 098.3854 357.3479 0008978 141.8051 218.3783 14.54547542262048
Epoch (UTC): 01 September 2014 21:28:36
Eccentricity: 0.0008978
inclination: 98.3854°
perigee height: 704 km
apogee height: 717 km
right ascension of ascending node: 357.3479°
argument of perigee: 141.8051°
revolutions per day: 14.54547542
mean anomaly at epoch: 218.3783°
orbit number at epoch: 26204

The dashed part of the orbit path shows where the satellite is in the earth's shadow,  

DLR